| time (UTC) | temp C | wind direction | speed KPH | gust KPH | rain 1hr cm | rain 24hr cm | rain mn cm | humidity % | barometer mb |
| 20260510080810 | 15 | 0 | 17.7 | 37.0 | 0.00 | 0.00 | 0.00 | 66 | 1015.0 |
| 20260510080305 | 14 | 0 | 20.9 | 37.0 | 0.00 | 0.00 | 0.00 | 67 | 1015.0 |
| 20260510075813 | 14 | 3 | 24.1 | 32.2 | 0.00 | 0.00 | 0.00 | 67 | 1015.0 |
| 20260510075308 | 15 | 0 | 20.9 | 35.4 | 0.00 | 0.00 | 0.00 | 67 | 1015.2 |
| 20260510074809 | 15 | 0 | 27.4 | 35.4 | 0.00 | 0.00 | 0.00 | 66 | 1015.3 |
| 20260510073808 | 15 | 0 | 19.3 | 32.2 | 0.00 | 0.00 | 0.00 | 69 | 1015.5 |
| 20260510072809 | 15 | 0 | 20.9 | 32.2 | 0.00 | 0.00 | 0.00 | 69 | 1015.5 |
| 20260510072307 | 15 | 0 | 17.7 | 32.2 | 0.00 | 0.00 | 0.00 | 69 | 1015.5 |
| 20260510071811 | 14 | 0 | 11.3 | 30.6 | 0.00 | 0.00 | 0.00 | 71 | 1015.5 |
| 20260510070810 | 14 | 0 | 20.9 | 30.6 | 0.00 | 0.00 | 0.00 | 72 | 1015.5 |
| 20260510070305 | 13 | 0 | 16.1 | 29.0 | 0.00 | 0.00 | 0.00 | 73 | 1015.6 |
| 20260510065809 | 13 | 8 | 17.7 | 29.0 | 0.00 | 0.00 | 0.00 | 74 | 1015.5 |
| 20260510065306 | 13 | 0 | 16.1 | 29.0 | 0.00 | 0.00 | 0.00 | 74 | 1015.5 |
| 20260510064807 | 13 | 0 | 20.9 | 29.0 | 0.00 | 0.00 | 0.00 | 75 | 1015.5 |
| 20260510064305 | 13 | 0 | 14.5 | 27.4 | 0.00 | 0.00 | 0.00 | 76 | 1015.5 |
| 20260510063807 | 13 | 0 | 16.1 | 30.6 | 0.00 | 0.00 | 0.00 | 77 | 1015.6 |
| 20260510063306 | 13 | 17 | 16.1 | 30.6 | 0.00 | 0.00 | 0.00 | 78 | 1015.6 |
| 20260510062307 | 12 | 4 | 16.1 | 30.6 | 0.00 | 0.00 | 0.00 | 79 | 1015.6 |
| 20260510061808 | 12 | 0 | 16.1 | 32.2 | 0.00 | 0.00 | 0.00 | 80 | 1015.5 |
| 20260510061304 | 12 | 0 | 16.1 | 32.2 | 0.00 | 0.00 | 0.00 | 81 | 1015.5 |
| 20260510060306 | 12 | 13 | 16.1 | 29.0 | 0.00 | 0.00 | 0.00 | 82 | 1015.6 |
| 20260510055809 | 11 | 3 | 14.5 | 25.7 | 0.00 | 0.00 | 0.00 | 83 | 1015.6 |
| 20260510055307 | 11 | 8 | 17.7 | 25.7 | 0.00 | 0.00 | 0.00 | 83 | 1015.6 |
| 20260510054809 | 11 | 0 | 17.7 | 22.5 | 0.00 | 0.00 | 0.00 | 84 | 1015.5 |
| 20260510054305 | 11 | 0 | 14.5 | 25.7 | 0.00 | 0.00 | 0.00 | 85 | 1015.5 |
| 20260510053809 | 11 | 0 | 16.1 | 29.0 | 0.00 | 0.00 | 0.00 | 86 | 1015.3 |
| 20260510053305 | 11 | 0 | 17.7 | 29.0 | 0.00 | 0.00 | 0.00 | 86 | 1015.3 |
| 20260510052808 | 11 | 10 | 14.5 | 27.4 | 0.00 | 0.00 | 0.00 | 87 | 1015.3 |
| 20260510052306 | 11 | 0 | 14.5 | 25.7 | 0.00 | 0.00 | 0.00 | 87 | 1015.4 |
| 20260510051306 | 11 | 6 | 16.1 | 25.7 | 0.00 | 0.00 | 0.00 | 87 | 1015.3 |
| 20260510050821 | 10 | 0 | 16.1 | 24.1 | 0.00 | 0.00 | 0.00 | 87 | 1015.2 |
| 20260510050305 | 10 | 0 | 12.9 | 22.5 | 0.00 | 0.00 | 0.00 | 87 | 1015.3 |
| 20260510045809 | 10 | 0 | 12.9 | 19.3 | 0.00 | 0.00 | 0.00 | 87 | 1015.4 |
| 20260510045307 | 10 | 0 | 12.9 | 19.3 | 0.00 | 0.00 | 0.00 | 87 | 1015.5 |
| 20260510044808 | 10 | 0 | 12.9 | 19.3 | 0.00 | 0.00 | 0.00 | 87 | 1015.5 |
| 20260510044307 | 10 | 7 | 11.3 | 19.3 | 0.00 | 0.00 | 0.00 | 87 | 1015.5 |
| 20260510043305 | 10 | 3 | 11.3 | 20.9 | 0.00 | 0.00 | 0.00 | 87 | 1015.5 |
| 20260510042808 | 10 | 0 | 9.7 | 20.9 | 0.00 | 0.00 | 0.00 | 87 | 1015.4 |
| 20260510042307 | 10 | 10 | 12.9 | 20.9 | 0.00 | 0.00 | 0.00 | 87 | 1015.4 |
| 20260510041809 | 10 | 0 | 14.5 | 20.9 | 0.00 | 0.00 | 0.00 | 87 | 1015.4 |
| 20260510041305 | 10 | 0 | 11.3 | 19.3 | 0.00 | 0.00 | 0.00 | 87 | 1015.3 |
| 20260510040308 | 10 | 4 | 11.3 | 19.3 | 0.00 | 0.00 | 0.00 | 87 | 1015.2 |
| 20260510035809 | 10 | 0 | 12.9 | 19.3 | 0.00 | 0.00 | 0.00 | 87 | 1015.2 |
| 20260510035306 | 10 | 0 | 9.7 | 19.3 | 0.00 | 0.00 | 0.00 | 87 | 1015.2 |
| 20260510034809 | 10 | 0 | 11.3 | 19.3 | 0.00 | 0.00 | 0.00 | 87 | 1015.1 |
| 20260510034307 | 10 | 4 | 14.5 | 19.3 | 0.00 | 0.00 | 0.00 | 87 | 1015.2 |
| 20260510033809 | 10 | 3 | 12.9 | 20.9 | 0.00 | 0.00 | 0.00 | 87 | 1015.2 |
| 20260510033306 | 10 | 0 | 12.9 | 20.9 | 0.00 | 0.00 | 0.00 | 87 | 1015.3 |
| 20260510032306 | 10 | 0 | 11.3 | 20.9 | 0.00 | 0.00 | 0.00 | 87 | 1015.2 |
| 20260510031808 | 10 | 0 | 14.5 | 19.3 | 0.00 | 0.00 | 0.00 | 87 | 1015.4 |
| 20260510030811 | 10 | 0 | 11.3 | 16.1 | 0.00 | 0.00 | 0.00 | 87 | 1015.5 |
| 20260510030305 | 10 | 0 | 11.3 | 17.7 | 0.00 | 0.00 | 0.00 | 87 | 1015.5 |
| 20260510025810 | 10 | 0 | 9.7 | 19.3 | 0.00 | 0.00 | 0.00 | 87 | 1015.4 |
| 20260510025306 | 10 | 0 | 11.3 | 19.3 | 0.00 | 0.00 | 0.00 | 87 | 1015.4 |
| 20260510024818 | 10 | 11 | 11.3 | 17.7 | 0.00 | 0.00 | 0.00 | 87 | 1015.5 |
| 20260510024305 | 10 | 4 | 9.7 | 17.7 | 0.00 | 0.00 | 0.00 | 86 | 1015.5 |
| 20260510023809 | 10 | 0 | 9.7 | 20.9 | 0.00 | 0.00 | 0.00 | 86 | 1015.6 |
| 20260510023305 | 10 | 0 | 11.3 | 20.9 | 0.00 | 0.00 | 0.00 | 86 | 1015.5 |
| 20260510022809 | 11 | 1 | 11.3 | 20.9 | 0.00 | 0.00 | 0.00 | 86 | 1015.5 |
| 20260510022307 | 11 | 3 | 11.3 | 20.9 | 0.00 | 0.00 | 0.00 | 86 | 1015.5 |
| 20260510021809 | 11 | 14 | 12.9 | 17.7 | 0.00 | 0.00 | 0.00 | 86 | 1015.6 |
| 20260510021305 | 10 | 0 | 9.7 | 17.7 | 0.00 | 0.00 | 0.00 | 86 | 1015.6 |
| 20260510020309 | 11 | 0 | 11.3 | 19.3 | 0.00 | 0.00 | 0.00 | 86 | 1015.7 |
| 20260510015809 | 11 | 0 | 11.3 | 20.9 | 0.00 | 0.00 | 0.00 | 86 | 1015.6 |
| 20260510015307 | 10 | 0 | 12.9 | 20.9 | 0.00 | 0.00 | 0.00 | 86 | 1015.6 |
| 20260510014305 | 10 | 0 | 11.3 | 19.3 | 0.00 | 0.00 | 0.00 | 86 | 1015.7 |
| 20260510013305 | 10 | 0 | 11.3 | 19.3 | 0.00 | 0.00 | 0.00 | 85 | 1015.7 |
| 20260510012307 | 10 | 0 | 11.3 | 17.7 | 0.00 | 0.00 | 0.00 | 85 | 1015.8 |
| 20260510011809 | 10 | 0 | 11.3 | 17.7 | 0.00 | 0.00 | 0.00 | 85 | 1015.8 |
| 20260510011307 | 10 | 0 | 9.7 | 14.5 | 0.00 | 0.00 | 0.00 | 84 | 1015.8 |
| 20260510010809 | 10 | 0 | 8.0 | 11.3 | 0.00 | 0.00 | 0.00 | 84 | 1015.9 |
| 20260510010305 | 11 | 0 | 9.7 | 11.3 | 0.00 | 0.00 | 0.00 | 84 | 1015.9 |
| 20260510005809 | 11 | 0 | 8.0 | 14.5 | 0.00 | 0.00 | 0.00 | 84 | 1015.9 |
| 20260510005306 | 11 | 0 | 9.7 | 14.5 | 0.00 | 0.00 | 0.00 | 83 | 1015.9 |
| 20260510004809 | 11 | 17 | 9.7 | 14.5 | 0.00 | 0.00 | 0.00 | 83 | 1015.9 |
| 20260510004305 | 11 | 0 | 9.7 | 17.7 | 0.00 | 0.00 | 0.00 | 83 | 1016.0 |
| 20260510003307 | 11 | 0 | 9.7 | 14.5 | 0.00 | 0.00 | 0.00 | 82 | 1016.2 |
| 20260510002307 | 11 | 4 | 8.0 | 16.1 | 0.00 | 0.00 | 0.00 | 82 | 1016.4 |
| 20260510001808 | 11 | 0 | 8.0 | 16.1 | 0.00 | 0.00 | 0.00 | 82 | 1016.3 |
| 20260510000305 | 11 | 0 | 9.7 | 14.5 | 0.00 | 0.00 | 0.00 | 81 | 1016.4 |
| 20260509235809 | 11 | 10 | 9.7 | 14.5 | 0.00 | 0.00 | 0.00 | 81 | 1016.4 |
| 20260509235307 | 11 | 0 | 9.7 | 16.1 | 0.00 | 0.00 | 0.00 | 81 | 1016.3 |
| 20260509234808 | 11 | 0 | 9.7 | 16.1 | 0.00 | 0.00 | 0.00 | 81 | 1016.3 |
| 20260509234310 | 11 | 11 | 9.7 | 17.7 | 0.00 | 0.00 | 0.00 | 81 | 1016.4 |
| 20260509233809 | 11 | 0 | 11.3 | 17.7 | 0.00 | 0.00 | 0.00 | 80 | 1016.5 |
| 20260509233307 | 11 | 0 | 11.3 | 17.7 | 0.00 | 0.00 | 0.00 | 80 | 1016.5 |
| 20260509232808 | 11 | 3 | 9.7 | 17.7 | 0.00 | 0.00 | 0.00 | 79 | 1016.4 |
| 20260509231808 | 11 | 1 | 11.3 | 17.7 | 0.00 | 0.00 | 0.00 | 79 | 1016.5 |
| 20260509231307 | 11 | 3 | 12.9 | 19.3 | 0.00 | 0.00 | 0.00 | 79 | 1016.6 |
| 20260509230809 | 11 | 0 | 12.9 | 19.3 | 0.00 | 0.00 | 0.00 | 78 | 1016.6 |
| 20260509230305 | 11 | 8 | 14.5 | 19.3 | 0.00 | 0.00 | 0.00 | 78 | 1016.5 |
| 20260509224808 | 11 | 4 | 11.3 | 17.7 | 0.00 | 0.00 | 0.00 | 77 | 1016.6 |
| 20260509223809 | 11 | 0 | 11.3 | 19.3 | 0.00 | 0.00 | 0.00 | 77 | 1016.6 |
| 20260509222810 | 12 | 0 | 12.9 | 17.7 | 0.00 | 0.00 | 0.00 | 77 | 1016.6 |
| 20260509222307 | 12 | 0 | 12.9 | 17.7 | 0.00 | 0.00 | 0.00 | 76 | 1016.6 |
| 20260509221809 | 12 | 0 | 12.9 | 19.3 | 0.00 | 0.00 | 0.00 | 76 | 1016.5 |
| 20260509220809 | 12 | 0 | 12.9 | 20.9 | 0.00 | 0.00 | 0.00 | 76 | 1016.5 |
| 20260509220305 | 12 | 16 | 11.3 | 19.3 | 0.00 | 0.00 | 0.00 | 76 | 1016.5 |
| 20260509215808 | 12 | 8 | 11.3 | 19.3 | 0.00 | 0.00 | 0.00 | 75 | 1016.4 |
| 20260509215306 | 12 | 0 | 12.9 | 19.3 | 0.00 | 0.00 | 0.00 | 75 | 1016.4 |
| 20260509214808 | 12 | 0 | 11.3 | 19.3 | 0.00 | 0.00 | 0.00 | 74 | 1016.5 |
| 20260509214306 | 12 | 11 | 12.9 | 17.7 | 0.00 | 0.00 | 0.00 | 74 | 1016.5 |
| 20260509213807 | 12 | 0 | 11.3 | 17.7 | 0.00 | 0.00 | 0.00 | 74 | 1016.5 |
| 20260509213305 | 12 | 0 | 11.3 | 17.7 | 0.00 | 0.00 | 0.00 | 73 | 1016.6 |
| 20260509212807 | 12 | 3 | 11.3 | 17.7 | 0.00 | 0.00 | 0.00 | 73 | 1016.6 |
| 20260509212306 | 12 | 6 | 12.9 | 20.9 | 0.00 | 0.00 | 0.00 | 72 | 1016.5 |
| 20260509211810 | 12 | 3 | 11.3 | 20.9 | 0.00 | 0.00 | 0.00 | 72 | 1016.5 |
| 20260509211306 | 12 | 0 | 11.3 | 19.3 | 0.00 | 0.00 | 0.00 | 71 | 1016.5 |
| 20260509205810 | 12 | 0 | 12.9 | 17.7 | 0.00 | 0.00 | 0.00 | 69 | 1016.4 |
| 20260509205307 | 12 | 0 | 9.7 | 16.1 | 0.00 | 0.00 | 0.00 | 69 | 1016.4 |
| 20260509204310 | 12 | 0 | 9.7 | 17.7 | 0.00 | 0.00 | 0.00 | 68 | 1016.4 |
| 20260509203809 | 13 | 4 | 8.0 | 16.1 | 0.00 | 0.00 | 0.00 | 67 | 1016.5 |
| 20260509203305 | 13 | 11 | 8.0 | 17.7 | 0.00 | 0.00 | 0.00 | 66 | 1016.3 |
| 20260509202812 | 13 | 6 | 11.3 | 17.7 | 0.00 | 0.00 | 0.00 | 66 | 1016.2 |
| 20260509202307 | 13 | 0 | 11.3 | 20.9 | 0.00 | 0.00 | 0.00 | 66 | 1016.4 |
| 20260509201807 | 13 | 0 | 11.3 | 20.9 | 0.00 | 0.00 | 0.00 | 65 | 1016.4 |
| 20260509201304 | 13 | 0 | 9.7 | 19.3 | 0.00 | 0.00 | 0.00 | 65 | 1016.3 |
| 20260509200808 | 13 | 6 | 9.7 | 17.7 | 0.00 | 0.00 | 0.00 | 65 | 1016.3 |
| 20260509200305 | 13 | 0 | 11.3 | 19.3 | 0.00 | 0.00 | 0.00 | 65 | 1016.3 |
| 20260509195811 | 13 | 0 | 14.5 | 19.3 | 0.00 | 0.00 | 0.00 | 65 | 1016.2 |
| 20260509195306 | 13 | 0 | 11.3 | 17.7 | 0.00 | 0.00 | 0.00 | 65 | 1016.3 |
| 20260509194811 | 13 | 0 | 9.7 | 16.1 | 0.00 | 0.00 | 0.00 | 64 | 1016.2 |
| 20260509194304 | 13 | 0 | 9.7 | 17.7 | 0.00 | 0.00 | 0.00 | 64 | 1016.2 |
| 20260509193809 | 14 | 0 | 11.3 | 19.3 | 0.00 | 0.00 | 0.00 | 64 | 1016.1 |
| 20260509193307 | 14 | 0 | 12.9 | 19.3 | 0.00 | 0.00 | 0.00 | 63 | 1016.1 |
| 20260509192306 | 14 | 3 | 12.9 | 20.9 | 0.00 | 0.00 | 0.00 | 63 | 1016.1 |
| 20260509191808 | 14 | 0 | 9.7 | 20.9 | 0.00 | 0.00 | 0.00 | 62 | 1016.1 |
| 20260509191305 | 15 | 0 | 11.3 | 20.9 | 0.00 | 0.00 | 0.00 | 62 | 1016.0 |
| 20260509190809 | 15 | 1 | 12.9 | 20.9 | 0.00 | 0.00 | 0.00 | 61 | 1015.9 |
| 20260509190306 | 15 | 0 | 12.9 | 24.1 | 0.00 | 0.00 | 0.00 | 60 | 1016.1 |
| 20260509185807 | 15 | 18 | 14.5 | 24.1 | 0.00 | 0.00 | 0.00 | 58 | 1015.9 |
| 20260509185306 | 15 | 6 | 14.5 | 24.1 | 0.00 | 0.00 | 0.00 | 57 | 1016.0 |
| 20260509184807 | 15 | 1 | 16.1 | 24.1 | 0.00 | 0.00 | 0.00 | 57 | 1016.0 |
| 20260509183807 | 16 | 0 | 14.5 | 24.1 | 0.00 | 0.00 | 0.00 | 58 | 1016.0 |
| 20260509183304 | 16 | 4 | 14.5 | 27.4 | 0.00 | 0.00 | 0.00 | 57 | 1016.0 |
| 20260509182807 | 16 | 0 | 17.7 | 27.4 | 0.00 | 0.00 | 0.00 | 56 | 1015.9 |
| 20260509182306 | 16 | 0 | 14.5 | 22.5 | 0.00 | 0.00 | 0.00 | 57 | 1015.9 |
| 20260509181812 | 17 | 0 | 14.5 | 22.5 | 0.00 | 0.00 | 0.00 | 57 | 1015.9 |
| 20260509181305 | 17 | 0 | 14.5 | 24.1 | 0.00 | 0.00 | 0.00 | 56 | 1015.8 |
| 20260509180808 | 17 | 0 | 14.5 | 24.1 | 0.00 | 0.00 | 0.00 | 56 | 1016.0 |
| 20260509180304 | 17 | 7 | 17.7 | 25.7 | 0.00 | 0.00 | 0.00 | 55 | 1015.9 |
| 20260509175807 | 17 | 1 | 14.5 | 29.0 | 0.00 | 0.00 | 0.00 | 56 | 1016.0 |
| 20260509175307 | 17 | 4 | 17.7 | 29.0 | 0.00 | 0.00 | 0.00 | 55 | 1015.9 |
| 20260509174809 | 18 | 0 | 12.9 | 27.4 | 0.00 | 0.00 | 0.00 | 56 | 1015.9 |
| 20260509174304 | 18 | 0 | 17.7 | 25.7 | 0.00 | 0.00 | 0.00 | 56 | 1015.9 |
| 20260509173809 | 18 | 4 | 14.5 | 25.7 | 0.00 | 0.00 | 0.00 | 56 | 1015.9 |
| 20260509172808 | 18 | 0 | 16.1 | 29.0 | 0.00 | 0.00 | 0.00 | 55 | 1015.8 |
| 20260509172307 | 18 | 0 | 19.3 | 29.0 | 0.00 | 0.00 | 0.00 | 55 | 1015.7 |
| 20260509171807 | 18 | 0 | 17.7 | 27.4 | 0.00 | 0.00 | 0.00 | 55 | 1015.7 |
| 20260509171305 | 18 | 4 | 19.3 | 29.0 | 0.00 | 0.00 | 0.00 | 54 | 1015.6 |
| 20260509170808 | 19 | 0 | 22.5 | 29.0 | 0.00 | 0.00 | 0.00 | 54 | 1015.6 |
| 20260509170306 | 19 | 0 | 20.9 | 30.6 | 0.00 | 0.00 | 0.00 | 54 | 1015.5 |
| 20260509165809 | 19 | 4 | 19.3 | 32.2 | 0.00 | 0.00 | 0.00 | 54 | 1015.5 |
| 20260509165307 | 19 | 0 | 20.9 | 33.8 | 0.00 | 0.00 | 0.00 | 53 | 1015.6 |
| 20260509164809 | 19 | 0 | 20.9 | 33.8 | 0.00 | 0.00 | 0.00 | 53 | 1015.7 |
| 20260509163808 | 20 | 20 | 17.7 | 29.0 | 0.00 | 0.00 | 0.00 | 52 | 1015.6 |
| 20260509163304 | 20 | 13 | 12.9 | 29.0 | 0.00 | 0.00 | 0.00 | 54 | 1015.6 |
| 20260509162307 | 20 | 0 | 20.9 | 32.2 | 0.00 | 0.00 | 0.00 | 53 | 1015.7 |
| 20260509161810 | 20 | 16 | 19.3 | 32.2 | 0.00 | 0.00 | 0.00 | 53 | 1015.7 |
| 20260509161305 | 20 | 0 | 19.3 | 30.6 | 0.00 | 0.00 | 0.00 | 53 | 1015.7 |
| 20260509155808 | 20 | 0 | 16.1 | 27.4 | 0.00 | 0.00 | 0.00 | 53 | 1015.8 |
| 20260509155306 | 20 | 0 | 17.7 | 29.0 | 0.00 | 0.00 | 0.00 | 53 | 1015.6 |
| 20260509154810 | 20 | 0 | 17.7 | 29.0 | 0.00 | 0.00 | 0.00 | 53 | 1015.6 |
| 20260509154309 | 20 | 1 | 17.7 | 29.0 | 0.00 | 0.00 | 0.00 | 53 | 1015.7 |
| 20260509153811 | 20 | 17 | 20.9 | 29.0 | 0.00 | 0.00 | 0.00 | 53 | 1015.7 |
| 20260509153304 | 21 | 0 | 17.7 | 25.7 | 0.00 | 0.00 | 0.00 | 51 | 1015.7 |
| 20260509152307 | 21 | 4 | 17.7 | 25.7 | 0.00 | 0.00 | 0.00 | 48 | 1015.6 |
| 20260509151808 | 21 | 0 | 9.7 | 24.1 | 0.00 | 0.00 | 0.00 | 50 | 1015.6 |
| 20260509151306 | 21 | 0 | 16.1 | 24.1 | 0.00 | 0.00 | 0.00 | 48 | 1015.6 |
| 20260509150808 | 21 | 13 | 9.7 | 20.9 | 0.00 | 0.00 | 0.00 | 49 | 1015.5 |
| 20260509150304 | 21 | 0 | 9.7 | 22.5 | 0.00 | 0.00 | 0.00 | 49 | 1015.5 |
| 20260509145809 | 21 | 0 | 14.5 | 22.5 | 0.00 | 0.00 | 0.00 | 49 | 1015.5 |
| 20260509145306 | 21 | 0 | 12.9 | 17.7 | 0.00 | 0.00 | 0.00 | 50 | 1015.5 |
| 20260509144809 | 21 | 0 | 12.9 | 17.7 | 0.00 | 0.00 | 0.00 | 49 | 1015.6 |
| 20260509144305 | 21 | 17 | 9.7 | 20.9 | 0.00 | 0.00 | 0.00 | 48 | 1015.7 |
| 20260509143808 | 21 | 6 | 12.9 | 20.9 | 0.00 | 0.00 | 0.00 | 48 | 1015.7 |
| 20260509143306 | 21 | 0 | 6.4 | 9.7 | 0.00 | 0.00 | 0.00 | 49 | 1015.8 |
| 20260509142307 | 21 | 14 | 6.4 | 22.5 | 0.00 | 0.00 | 0.00 | 51 | 1015.7 |
| 20260509141306 | 21 | 0 | 14.5 | 22.5 | 0.00 | 0.00 | 0.00 | 49 | 1015.8 |
| 20260509140810 | 21 | 0 | 12.9 | 19.3 | 0.00 | 0.00 | 0.00 | 47 | 1015.9 |
| 20260509140306 | 21 | 3 | 9.7 | 19.3 | 0.00 | 0.00 | 0.00 | 47 | 1015.9 |
| 20260509135808 | 22 | 16 | 14.5 | 22.5 | 0.00 | 0.00 | 0.00 | 47 | 1015.9 |
| 20260509135307 | 22 | 0 | 14.5 | 24.1 | 0.00 | 0.00 | 0.00 | 48 | 1016.0 |
| 20260509134305 | 21 | 24 | 12.9 | 19.3 | 0.00 | 0.00 | 0.00 | 49 | 1016.0 |
| 20260509133809 | 21 | 0 | 9.7 | 22.5 | 0.00 | 0.00 | 0.00 | 49 | 1016.1 |
| 20260509132810 | 21 | 0 | 16.1 | 22.5 | 0.00 | 0.00 | 0.00 | 50 | 1016.1 |
| 20260509132306 | 21 | 4 | 9.7 | 25.7 | 0.00 | 0.00 | 0.00 | 48 | 1016.2 |
| 20260509131808 | 21 | 0 | 17.7 | 25.7 | 0.00 | 0.00 | 0.00 | 47 | 1016.1 |
| 20260509131305 | 22 | 0 | 12.9 | 24.1 | 0.00 | 0.00 | 0.00 | 48 | 1016.1 |
| 20260509130810 | 22 | 27 | 14.5 | 22.5 | 0.00 | 0.00 | 0.00 | 49 | 1016.2 |
| 20260509125809 | 21 | 0 | 16.1 | 25.7 | 0.00 | 0.00 | 0.00 | 50 | 1016.3 |
| 20260509125308 | 21 | 0 | 6.4 | 20.9 | 0.00 | 0.00 | 0.00 | 51 | 1016.4 |
| 20260509124808 | 20 | 4 | 12.9 | 20.9 | 0.00 | 0.00 | 0.00 | 52 | 1016.5 |
| 20260509124306 | 20 | 0 | 6.4 | 16.1 | 0.00 | 0.00 | 0.00 | 51 | 1016.5 |
| 20260509123810 | 20 | 16 | 9.7 | 20.9 | 0.00 | 0.00 | 0.00 | 50 | 1016.6 |
| 20260509123307 | 20 | 0 | 12.9 | 20.9 | 0.00 | 0.00 | 0.00 | 48 | 1016.6 |
| 20260509122809 | 21 | 0 | 11.3 | 20.9 | 0.00 | 0.00 | 0.00 | 50 | 1016.6 |
| 20260509121807 | 21 | 25 | 14.5 | 29.0 | 0.00 | 0.00 | 0.00 | 48 | 1016.7 |
| 20260509121305 | 21 | 0 | 6.4 | 16.1 | 0.00 | 0.00 | 0.00 | 51 | 1016.8 |
| 20260509120809 | 21 | 0 | 4.8 | 14.5 | 0.00 | 0.00 | 0.00 | 50 | 1016.8 |
| 20260509120304 | 21 | 0 | 8.0 | 16.1 | 0.00 | 0.00 | 0.00 | 48 | 1016.9 |
| 20260509115808 | 21 | 0 | 6.4 | 19.3 | 0.00 | 0.00 | 0.00 | 48 | 1016.9 |
| 20260509115307 | 21 | 7 | 9.7 | 19.3 | 0.00 | 0.00 | 0.00 | 50 | 1017.0 |
| 20260509114811 | 21 | 25 | 14.5 | 19.3 | 0.00 | 0.00 | 0.00 | 50 | 1017.0 |
| 20260509113808 | 21 | 0 | 9.7 | 19.3 | 0.00 | 0.00 | 0.00 | 48 | 1017.3 |
| 20260509113306 | 21 | 21 | 4.8 | 19.3 | 0.00 | 0.00 | 0.00 | 47 | 1017.2 |
| 20260509112809 | 21 | 0 | 9.7 | 16.1 | 0.00 | 0.00 | 0.00 | 52 | 1017.3 |
| 20260509112307 | 21 | 0 | 6.4 | 17.7 | 0.00 | 0.00 | 0.00 | 48 | 1017.3 |
| 20260509111808 | 21 | 0 | 9.7 | 22.5 | 0.00 | 0.00 | 0.00 | 49 | 1017.4 |
| 20260509111305 | 21 | 0 | 9.7 | 22.5 | 0.00 | 0.00 | 0.00 | 50 | 1017.5 |
| 20260509110809 | 21 | 0 | 8.0 | 17.7 | 0.00 | 0.00 | 0.00 | 50 | 1017.4 |
| 20260509110318 | 21 | 0 | 8.0 | 22.5 | 0.00 | 0.00 | 0.00 | 49 | 1017.4 |
| 20260509105806 | 21 | 0 | 11.3 | 22.5 | 0.00 | 0.00 | 0.00 | 49 | 1017.6 |
| 20260509105306 | 21 | 0 | 9.7 | 20.9 | 0.00 | 0.00 | 0.00 | 51 | 1017.5 |
| 20260509103809 | 21 | 0 | 9.7 | 20.9 | 0.00 | 0.00 | 0.00 | 51 | 1017.6 |
| 20260509103305 | 21 | 0 | 11.3 | 20.9 | 0.00 | 0.00 | 0.00 | 50 | 1017.7 |
| 20260509102808 | 21 | 17 | 9.7 | 19.3 | 0.00 | 0.00 | 0.00 | 50 | 1017.7 |
| 20260509102306 | 21 | 0 | 12.9 | 20.9 | 0.00 | 0.00 | 0.00 | 52 | 1017.7 |
| 20260509101807 | 20 | 1 | 8.0 | 20.9 | 0.00 | 0.00 | 0.00 | 52 | 1017.8 |
| 20260509101304 | 20 | 25 | 11.3 | 20.9 | 0.00 | 0.00 | 0.00 | 50 | 1017.8 |
| 20260509100809 | 20 | 20 | 12.9 | 20.9 | 0.00 | 0.00 | 0.00 | 51 | 1017.9 |
| 20260509100305 | 21 | 20 | 12.9 | 17.7 | 0.00 | 0.00 | 0.00 | 50 | 1017.8 |
| 20260509095808 | 20 | 18 | 9.7 | 17.7 | 0.00 | 0.00 | 0.00 | 53 | 1017.9 |
| 20260509094808 | 20 | 0 | 12.9 | 20.9 | 0.00 | 0.00 | 0.00 | 49 | 1018.0 |
| 20260509094304 | 20 | 0 | 12.9 | 20.9 | 0.00 | 0.00 | 0.00 | 53 | 1017.9 |
| 20260509093806 | 20 | 0 | 14.5 | 20.9 | 0.00 | 0.00 | 0.00 | 52 | 1017.9 |
| 20260509093303 | 20 | 0 | 14.5 | 20.9 | 0.00 | 0.00 | 0.00 | 52 | 1017.9 |
| 20260509092305 | 20 | 0 | 17.7 | 24.1 | 0.00 | 0.00 | 0.00 | 50 | 1017.9 |
| 20260509091305 | 20 | 0 | 14.5 | 22.5 | 0.00 | 0.00 | 0.00 | 53 | 1018.0 |
| 20260509090806 | 20 | 0 | 9.7 | 22.5 | 0.00 | 0.00 | 0.00 | 52 | 1018.0 |
| 20260509090302 | 20 | 0 | 12.9 | 22.5 | 0.00 | 0.00 | 0.00 | 53 | 1018.0 |
| 20260509085805 | 19 | 0 | 9.7 | 17.7 | 0.00 | 0.00 | 0.00 | 55 | 1018.0 |
| 20260509085306 | 19 | 0 | 9.7 | 19.3 | 0.00 | 0.00 | 0.00 | 53 | 1018.1 |
| 20260509084805 | 19 | 0 | 14.5 | 19.3 | 0.00 | 0.00 | 0.00 | 55 | 1018.0 |
| 20260509084303 | 19 | 0 | 9.7 | 17.7 | 0.00 | 0.00 | 0.00 | 54 | 1017.9 |
| 20260509083807 | 19 | 0 | 11.3 | 19.3 | 0.00 | 0.00 | 0.00 | 55 | 1018.0 |
| 20260509083301 | 19 | 0 | 9.7 | 20.9 | 0.00 | 0.00 | 0.00 | 55 | 1018.0 |
| 20260509082805 | 18 | 0 | 9.7 | 20.9 | 0.00 | 0.00 | 0.00 | 57 | 1018.0 |
| 20260509082307 | 18 | 0 | 12.9 | 20.9 | 0.00 | 0.00 | 0.00 | 54 | 1018.0 |
| 20260509081804 | 18 | 0 | 14.5 | 20.9 | 0.00 | 0.00 | 0.00 | 54 | 1018.1 |